Location: *
(51.0333°S, 178.4667°E)
Time: 07:38:19
(UTC+00:00)

STARLINK-74 - Pass Details

Date: 15 November 2019
Orbit: 529 x 530 km, 53.0° (Epoch: 08 December)

Event Time Altitude Azimuth Distance (km) Brightness Sun altitude
Rises 09:46:18 0° 263° (W) 2,678 7.7 -15.3°
Reaches altitude 10° 09:48:32 10° 259° (W) 1,789 6.8 -15.5°
Maximum altitude 09:52:35 65° 176° (S) 590 3.9 -15.8°
Drops below altitude 10° 09:56:37 10° 93° (E) 1,789 6.0 -16.1°
Enters shadow 09:56:55 - 92° (E) 1,904 6.1 -16.2°
